Location: ?????
(42.2640°N, 43.4211°E)
Time: 14:40:52
(UTC+00:00)

ARIANE 5 R/B - Pass Details

Date: 07 August 2020
Orbit: 749 x 794 km, 98.6° (Epoch: 19 September)

Event Time Altitude Azimuth Distance (km) Brightness Sun altitude
Rises 00:27:03 0° 8° (N) 3,295 6.6 -16.2°
Reaches altitude 10° 00:29:25 10° 4° (N) 2,366 5.7 -15.9°
Maximum altitude 00:34:29 53° 289° (WNW) 974 2.8 -15.2°
Enters shadow 00:37:43 22° 221° (SW) 1,682 3.7 -14.7°
